Mobile, AL

4:40 AM CDT on June 25, 2017 (GMT -0500)
Mobile Regional

Weather History for KMOB - April, 2013

Change the Weather History Date:

Monday, April 15, 2013

  Actual Average Record
Temperature  
Mean Temperature 71 °F 66 °F  
Max Temperature 78 °F 77 °F 89 °F (2001)
Min Temperature 63 °F 55 °F 36 °F (2008)
Degree Days  
Heating Degree Days 0 2  
Month to date heating degree days 39 44  
Since 1 July heating degree days 1525 1675  
Cooling Degree Days 6 3  
Month to date cooling degree days 31 38  
Year to date cooling degree days 75 93  
Growing Degree Days 20 (Base 50)    
Moisture  
Dew Point 66 °F    
Average Humidity 84    
Maximum Humidity 93    
Minimum Humidity 74    
Precipitation  
Precipitation T in 0.16 in 3.81 in (1934)
Month to date precipitation 3.81 2.53  
Year to date precipitation 18.79 19.44  
Sea Level Pressure  
Sea Level Pressure 29.96 in    
Wind  
Wind Speed 6 mph (SE)    
Max Wind Speed 16 mph    
Max Gust Speed 18 mph    
Visibility 6 miles    
Events      
T = Trace of Precipitation, MM = Missing Value Source: NWS Daily Summary

Daily Weather History Graph

Daily Weather History Graph

Search for Another Location

Airport or City:

Trip Planner

Search our weather history database for the weather conditions in past years. The results will help you decide how hot, cold, wet, or windy it might be!

Date:

Astronomy

Apr. 15, 2013 Rise Set
Actual Time 6:25 AM CDT 7:21 PM CDT
Civil Twilight 6:00 AM CDT 7:45 PM CDT
Nautical Twilight 5:31 AM CDT 8:15 PM CDT
Astronomical Twilight 5:01 AM CDT 8:45 PM CDT
Moon 10:02 AM CDT (4/15) No Moon Set
Length of Visible Light 13h 45m
Length of Day
12h 55m
Waxing Crescent, 25% of the Moon is Illuminated
Apr 15
Waxing Crescent
Apr 18
First Quarter
Apr 25
Full
May 2
Last Quarter
May 9
New

Hourly Weather History & Observations

Time (CDT) Temp. Dew Point Humidity Pressure Visibility Wind Dir Wind Speed Gust Speed Precip Events Conditions
12:56 AM 64.0 °F 62.1 °F 93% 29.85 in 10.0 mi Calm Calm - N/A   Overcast
1:56 AM 64.0 °F 62.1 °F 93% 29.86 in 10.0 mi Calm Calm - N/A   Overcast
2:35 AM 64.4 °F 62.6 °F 94% 29.87 in 10.0 mi Calm Calm - N/A   Overcast
2:56 AM 64.0 °F 62.1 °F 93% 29.86 in 10.0 mi Calm Calm - N/A   Overcast
3:47 AM 64.4 °F 62.6 °F 94% 29.87 in 10.0 mi Calm Calm - N/A   Overcast
3:56 AM 64.0 °F 62.1 °F 93% 29.87 in 10.0 mi Calm Calm - N/A   Overcast
4:56 AM 64.0 °F 62.1 °F 93% 29.88 in 8.0 mi Calm Calm - N/A   Overcast
5:56 AM 64.0 °F 62.1 °F 93% 29.90 in 6.0 mi Calm Calm - N/A   Overcast
6:17 AM 64.4 °F 62.6 °F 94% 29.92 in 2.5 mi East 3.5 mph - N/A   Overcast
6:56 AM 64.4 °F 62.6 °F 94% 29.93 in 2.0 mi Calm Calm - N/A   Overcast
7:18 AM 64.4 °F 62.6 °F 94% 29.95 in 2.0 mi SE 3.5 mph - N/A   Overcast
7:56 AM 66.9 °F 64.0 °F 90% 29.95 in 3.0 mi ESE 3.5 mph - N/A   Overcast
8:19 AM 68.0 °F 64.4 °F 88% 29.96 in 3.0 mi SE 4.6 mph - N/A   Overcast
8:31 AM 68.0 °F 64.4 °F 88% 29.96 in 3.0 mi ESE 4.6 mph - N/A   Overcast
8:56 AM 69.1 °F 64.9 °F 87% 29.96 in 3.0 mi East 5.8 mph - N/A   Overcast
8:59 AM 69.8 °F 66.2 °F 88% 29.97 in 5.0 mi ESE 5.8 mph - N/A   Overcast
9:49 AM 71.6 °F 66.2 °F 83% 29.98 in 4.0 mi ESE 6.9 mph - N/A   Haze
9:56 AM 72.0 °F 66.9 °F 84% 29.97 in 4.0 mi ESE 5.8 mph - N/A   Haze
10:13 AM 71.6 °F 66.2 °F 83% 29.98 in 5.0 mi East 5.8 mph - N/A   Haze
10:28 AM 71.6 °F 66.2 °F 83% 29.99 in 7.0 mi SE 4.6 mph - N/A   Overcast
10:56 AM 72.0 °F 66.9 °F 84% 29.98 in 3.0 mi SE 5.8 mph - 0.00 in   Light Drizzle
11:08 AM 71.6 °F 66.2 °F 83% 29.99 in 4.0 mi SE 4.6 mph - 0.00 in   Light Drizzle
11:17 AM 71.6 °F 66.2 °F 83% 29.99 in 4.0 mi SE 6.9 mph - 0.00 in   Light Drizzle
11:56 AM 71.1 °F 68.0 °F 90% 29.99 in 4.0 mi SE 6.9 mph - 0.00 in   Light Drizzle
12:18 PM 71.6 °F 68.0 °F 88% 30.00 in 1.5 mi ESE 8.1 mph - 0.00 in   Light Drizzle
12:56 PM 72.0 °F 68.0 °F 87% 29.99 in 3.0 mi SE 8.1 mph - 0.00 in   Overcast
1:24 PM 71.6 °F 69.8 °F 94% 30.00 in 1.5 mi SE 8.1 mph - 0.00 in   Light Drizzle
1:36 PM 71.6 °F 69.8 °F 94% 30.00 in 2.0 mi SE 8.1 mph - 0.00 in   Light Drizzle
1:45 PM 71.6 °F 69.8 °F 94% 29.99 in 3.0 mi SE 6.9 mph - 0.00 in   Overcast
1:56 PM 73.9 °F 69.1 °F 85% 29.98 in 3.0 mi ESE 6.9 mph - 0.00 in   Haze
2:51 PM 78.8 °F 69.8 °F 74% 29.97 in 10.0 mi SSE 5.8 mph - N/A   Overcast
2:56 PM 78.1 °F 69.1 °F 74% 29.96 in 10.0 mi SE 8.1 mph - N/A   Overcast
3:56 PM 77.0 °F 68.0 °F 74% 29.96 in 10.0 mi SE 8.1 mph - N/A   Overcast
4:56 PM 75.9 °F 66.9 °F 74% 29.96 in 10.0 mi SE 6.9 mph - N/A   Mostly Cloudy
5:40 PM 75.2 °F 66.2 °F 73% 29.97 in 10.0 mi SSE 11.5 mph - N/A   Overcast
5:56 PM 75.0 °F 66.9 °F 76% 29.97 in 10.0 mi SE 11.5 mph - N/A   Overcast
6:32 PM 73.4 °F 66.2 °F 78% 29.98 in 10.0 mi SE 11.5 mph - N/A   Overcast
6:56 PM 73.0 °F 66.9 °F 81% 29.98 in 10.0 mi SSE 10.4 mph - N/A   Overcast
7:56 PM 72.0 °F 66.9 °F 84% 30.00 in 10.0 mi SE 10.4 mph - N/A   Overcast
8:56 PM 71.1 °F 66.0 °F 84% 30.02 in 10.0 mi SE 13.8 mph - N/A   Overcast
9:56 PM 71.1 °F 64.9 °F 81% 30.04 in 10.0 mi SE 10.4 mph - N/A   Overcast
10:56 PM 71.1 °F 64.9 °F 81% 30.05 in 10.0 mi SE 10.4 mph - N/A   Overcast
11:19 PM 71.6 °F 66.2 °F 83% 30.05 in 10.0 mi SE 10.4 mph - N/A   Overcast
11:56 PM 71.1 °F 66.0 °F 84% 30.05 in 10.0 mi Variable 6.9 mph 19.6 mph N/A   Overcast